Hourly Data Report for June 04, 2012

All times are specified in Local Standard Time (LST). Add 1 hour to adjust for Daylight Saving Time where and when it is observed.

VICTORIA HARTLAND CS
BRITISH COLUMBIA

48°32'01.800" N
123°27'32.900" W
154.10 m
1018FJ5

Download Data

Hourly Data (June 2012)
Hourly Data Report for June 4, 2012
Temp Definition
°C
Dew Point Temp Definition
°C
Rel Hum Definition
%
Wind Dir Definition
10's deg

Wind Spd Definition
km/h
Visibility Definition
km
Stn Press Definition
kPa
Hmdx Definition


Wind Chill Definition


Weather Definition


TIME
00:00 8.5 3.6 71 34 9   99.46     LegendNANA
01:00 8.7 3.5 70 33 9   99.44     LegendNANA
02:00 9.0 3.5 68 33 13   99.34     LegendNANA
03:00 9.0 4.0 71 33 13   99.29     LegendNANA
04:00 8.9 4.8 75 33 13   99.28     LegendNANA
05:00 8.9 4.8 75 34 13   99.21     LegendNANA
06:00 9.5 4.9 73 34 13   99.17     LegendNANA
07:00 9.0 5.0 76 36 9   99.14     LegendNANA
08:00 9.6 5.7 77 34 13   99.12     LegendNANA
09:00 9.7 6.0 78 34 11   99.11     LegendNANA
10:00 10.1 5.9 75 35 11   99.10     LegendNANA
11:00 10.2 5.8 74 35 11   99.08     LegendNANA
12:00 10.1 6.9 80 36 7   99.08     LegendNANA
13:00 10.2 6.6 78 35 4   99.10     LegendNANA
14:00 11.4 6.0 69 6 4   99.10     LegendNANA
15:00 11.8 6.2 69 1 6   99.10     LegendNANA
16:00 11.3 6.3 71 35 4   99.08     LegendNANA
17:00 10.9 6.4 74 18 6   99.06     LegendNANA
18:00 10.7 6.7 76 17 4   99.05     LegendNANA
19:00 10.6 7.2 79 17 4   99.10     LegendNANA
20:00 10.6 6.8 77 24 2   98.99     LegendNANA
21:00 10.1 7.1 82   0   99.06     LegendNANA
22:00 9.8 7.0 83   0   99.07     LegendNANA
23:00 9.2 6.7 84   0   99.10     LegendNANA

Notes on Data Quality.

Legend

  • E = Estimated
  • M = Missing
  • NA = Not Available
  • ‡ = Partner data that is not subject to review by the National Climate Archives
Date modified: